Regional Weather Roundup
Issued by NWS Albany, NY

Home | Current Version | Previous Version | Text Only | Print | Product List | Glossary On
Versions: 1 2 3 4 5 6 7 8 9 10 11 12 13 14 15 16 17 18 19 20 21 22 23 24 25 26 27 28 29 30 31 32 33 34 35 36 37 38 39 40 41 42 43 44 45 46 47 48 49 50
000
ASUS41 KALY 282010
RWRALY

NEW YORK STATE HOURLY WEATHER ROUNDUP
NATIONAL WEATHER SERVICE ALBANY NY
400 PM EDT THU MAY 28 2015

NOTE: "FAIR" INDICATES FEW OR NO CLOUDS BELOW 12,000 FEET WITH NO
SIGNIFICANT WEATHER AND/OR NO OBSTRUCTIONS TO VISIBILITY.

NYZ032-033-038>043-046>054-057>066-NYZ062>081-282100-
EAST


CITY           SKY/WX    TMP DP  RH WIND       PRES   REMARKS
ALBANY         PTSUNNY   77  56  48 NW22G35   30.14R
GLENS FALLS    MOSUNNY   73  55  53 W17G24    30.13R
POUGHKEEPSIE   PTSUNNY   87  61  41 W16G23    30.08F
NEWBURGH       MOSUNNY   82  64  54 NW17      30.11F
MONTGOMERY     MOSUNNY   86  61  42 NW8G17    30.10F
WHITE PLAINS   PTSUNNY   80  68  66 S8        30.12F
ISLIP          CLOUDY    73  64  73 SW13      30.13F
NEW YORK CITY  PTSUNNY   80  66  62 S13       30.12F
CENTRAL PARK   PTSUNNY   81  66  60 VRB5      30.15S
$$

NYZ005>009-017-018-044>046-055-056-282100-
CENTRAL


CITY           SKY/WX    TMP DP  RH WIND       PRES   REMARKS
FULTON         SUNNY     70  55  59 W13       30.25R
SYRACUSE       PTSUNNY   71  56  58 NW8G18    30.23S
ROME           PTSUNNY   68  55  63 W14       30.23S
ELMIRA         MOSUNNY   79  53  40 N12       30.23F
BINGHAMTON     PTSUNNY   72  55  55 W13G20    30.25R
MONTICELLO     MOSUNNY   77  59  53 W13G21    30.20R
$$

NYZ026>034-041>043-282100-
NORTH


CITY           SKY/WX    TMP DP  RH WIND       PRES   REMARKS
WATERTOWN      MOSUNNY   67  55  65 SW9       30.22R
FORT DRUM      NOT AVBL
MASSENA        CLOUDY    66  59  78 W9        30.18R
SARANAC LAKE   CLOUDY    59  55  87 SW8       30.17R
PLATTSBURGH    PTSUNNY   71  56  58 VRB7      30.10R
$$

NYZ001>004-010>016-019>021-282100-
WEST


CITY           SKY/WX    TMP DP  RH WIND       PRES   REMARKS
NIAGARA FALLS  MOSUNNY   76  51  41 NW9       30.24F
BUFFALO        MOSUNNY   74  53  48 W9        30.26F
DUNKIRK        SUNNY     72  55  55 NW6       30.27F
JAMESTOWN      SUNNY     72  48  43 CALM      30.29F
WELLSVILLE     MOSUNNY   74  52  46 NW8       30.30F
ROCHESTER      MOSUNNY   75  53  46 VRB5      30.25S
PENN YAN       MOSUNNY   74  52  46 NW7       30.27R
$$

             KEY
       WCI = WIND CHILL INDEX
       VSB = VISIBILITY
       HX  = HEAT INDEX
$$



USA.gov is the U.S. government's official web portal to all federal, state and local government web resources and services.